Location: Borovka
(49.7741°N, 14.5280°E)
Time: 17:26:53
(UTC+00:00)

DX 1 - Visible Passes

Search period start: 14 March 2026 00:00
Search period end: 24 March 2026 00:00
Orbit: 595 x 603 km, 98.4° (Epoch: 14 March)

Date Brightness Start Highest point End Pass type
(mag) Time Alt. Az. Time Alt. Az. Time Alt. Az.
14 Mar ? 01:53:51 10° NNE 01:55:58 28° NNE 01:55:58 28° NNE visible
14 Mar ? 03:30:34 10° NNW 03:32:43 16° NW 03:32:43 16° NW visible
15 Mar ? 02:04:36 10° NNE 02:07:00 33° NNE 02:07:00 33° NNE visible
15 Mar ? 03:41:45 10° NNW 03:43:44 14° NW 03:43:44 14° NW visible
16 Mar ? 02:15:23 10° NNE 02:18:02 37° N 02:18:02 37° N visible
16 Mar ? 03:53:13 10° NW 03:54:31 11° NW 03:54:46 11° WNW visible
17 Mar ? 00:51:40 10° NE 00:52:19 12° ENE 00:52:19 12° ENE visible
17 Mar ? 02:26:11 10° N 02:29:03 40° N 02:29:03 40° N visible
18 Mar ? 01:02:02 10° NE 01:03:21 16° ENE 01:03:21 16° ENE visible
18 Mar ? 02:37:01 10° N 02:40:05 39° NNW 02:40:05 39° NNW visible
19 Mar ? 01:12:31 10° NE 01:14:22 20° ENE 01:14:22 20° ENE visible
19 Mar ? 02:47:52 10° N 02:51:06 35° NW 02:51:06 35° NW visible
20 Mar ? 01:23:05 10° NNE 01:25:23 25° ENE 01:25:23 25° ENE visible
20 Mar ? 02:58:46 10° N 03:02:07 30° NW 03:02:07 30° NW visible
21 Mar ? 01:33:42 10° NNE 01:36:24 31° ENE 01:36:24 31° ENE visible
21 Mar ? 03:09:41 10° N 03:13:07 25° WNW 03:13:07 25° WNW visible
22 Mar ? 01:44:22 10° NNE 01:47:25 40° NE 01:47:25 40° NE visible
22 Mar ? 03:20:40 10° NNW 03:23:48 21° WNW 03:24:09 20° WNW visible
23 Mar ? 01:55:03 10° NNE 01:58:25 51° NE 01:58:25 51° NE visible
23 Mar ? 03:31:42 10° NNW 03:34:27 17° WNW 03:35:09 16° WNW visible
